Find Starlink 3156

NORAD ID: 49458 Int'l Des: 2021-104 Owner: SPXS Country: US Constellation: starlink operational
LEOCIRCULAR

Live-Position

3D-Globus wird geladen...

Über Starlink 3156

Beschreibung wird geladen...

Nächste Überflüge

Passes for default location (London). Set your location on the main map for personalized predictions.

Höhenverlauf

Loading altitude history...

Zweizeiliger Elementsatz

1 49458U 21104BC 26104.89833386 .00000505 00000-0 49841-4 0 9999
2 49458 53.2183 56.5734 0001238 93.0761 267.0373 15.08826509244242
Epoch: 14. Apr. 2026 • Age: 10 hours

Aktueller Status

Höhe 545.5 km
Geschwindigkeit 7.60 km/s
Subsatellitenpunkt 53.22°N, 176.99°W
Startdatum 13. Nov. 2021
Alter 4.4 years
Typ internet

Technische Details

Klassifizierung Payload
Masse 290.00 kg
Trockenmasse 270.00 kg
Gesamtmasse 290.00 kg
Länge 0.20 m
Durchmesser 2.80 m
Spannweite 9.00 m
Form Box + pan
Hersteller SPXS
Bus-Typ Starlink
Phasenstatus In Orbit
Besitzer/Staat SPXS/US

Most Searched